DELTA 1 DEB, 40764

Orbit data source: Space-Track

DELTA 1 DEB, 40764 is space debris in SSO originally from a launch on Thu, 29 Jul 1976 UTC launched from the Air Force Western Test Range (AFWTR). Debris objects in space refer to the collection of defunct objects orbiting the Earth. Examples of debris include non-operational satellites, rocket bodies, and fragments generated from explosions, collisions, or faulty payload assembly.

Loading next visibility...
Identifier
40764, 1976-077GH
Orbit
SSO
Country
Flag of USUS
Related business
Manufacturer
Unknown
Mission
Spacecraft
Bus & Motor
Unknown
Mass
Unknown
Launch date (UTC)
1976-07-29 (49 years ago)
Launch vehicle
Unknown
Launch site
Air Force Western Test Range (AFWTR)
Object type
Payload
Rocket body
Debris
Shape & HBR
Unknown
Radar Cross Section
Small (<0.1 m²)

Expand to show TLE details & history
Last TLE update: 1 week ago

TLE from 1 week ago
0 DELTA 1 DEB
1 40764U 76077GH  25252.22788568 -.00000011  00000-0  25898-3 0  9998
2 40764 102.1651 229.1349 0000407 215.9773 144.1263 12.40694587866988
Epoch: 2025-09-09T05:28Z
TLE epoch observation values (Epoch: 2025-09-09T05:28:09.322Z)
Latitude
-0.00002°
Longitude
158.57439°
Altitude
1,506.463 km
Speed
7.111 km/s
True Right ascension
15h 16m 32s
True Declination
0° 00' 00"
Sunlit
Object was in daylight at epoch
Visualization orbit readout
Latitude
Unknown
Longitude
Unknown
Altitude
Unknown
Speed
Unknown
Apparent Right ascension
Unknown
Apparent Declination
Unknown
Sunlit
N/A
Visualization observer readout
Local Sidereal Time
02:35:35
Azimuth
Unknown
Elevation
Unknown
Doppler factor
Unknown
Orbital elements
Apogee altitude
1,501.564 km
Perigee altitude
1,500.923 km
Semi-major axis
7,879.381 km
Eccentricity
0.00004
Inclination
102.1651°
RAAN
229.1349°
Arg. of periapsis
215.9773°
True anomaly
144.12903°
Mean anomaly
144.1263°
Eccentric anomaly
144.12767°
Mean motion
3.10317 °/min
Orbital period
116.01 mins
BSTAR
0.00025898
Loading maneuver chart data...
Computing Atmospheric mass density...
Loading historical data...
Loading historical data...
Loading historical data...
Loading historical data...
Loading historical data...
Loading historical data...
Loading historical data...

Documentation

Showing up to 5 results
|